Flag for Palestinian Territories Weather past 2 weeks in Nablus, West Bank, Palestinian Territories

63 °F

Passing clouds.

Feels Like: 63 °F
Forecast: 49 / 64 °F
Wind: 3 mph from North

Location: Ben Gurion International Airport

Current Time: Nov 29, 2015 at 11:19:40 PM

Latest Report: Nov 29, 2015 at 10:50 PM

Visibility: N/A

Pressure: 30.07 "Hg (28.24 "Hg at 534m altitude)

Humidity: 77%

Dew point: 55 °F

Location of NablusLocation

Historic Weather in Nablus — Graph


Nablus temperature yesterday

Maximum temperature yesterday: 77 °F (at 11:20 AM)
Minimum temperature yesterday: 55 °F (at 3:50 AM)
Average temperature yesterday: 65 °F

Past Weeks' High & Low Weather Summary

High90 °F (Nov 15, 1:50 PM)94% (Nov 16, 11:20 AM)30.18 "Hg (Nov 16, 11:20 AM)
Low55 °F (Nov 24, 6:20 AM)25% (Nov 25, 9:20 AM)29.74 "Hg (Nov 16, 11:50 AM)
Average68 °F59%29.99 "Hg
* Reported Nov 14 10:20 PM — Nov 29 10:20 PM, Nablus, Weather by CustomWeather, © 2015

Note: Actual official high and low records may vary slightly from our data, if they occured in-between our weather recording intervals... More about our weather records


Nablus weather history for previous 24 hours

Time TempWeatherWind HumidityBarometerVisibility
10:20 PM
Sun, Nov 29
63 °FPassing clouds.2 mph77%30.09 "HgN/A
9:50 PM63 °FPassing clouds.3 mph77%30.07 "HgN/A
9:20 PM63 °FPassing clouds.3 mph83%30.07 "HgN/A
8:50 PM63 °FPassing clouds.3 mph83%30.07 "HgN/A
8:20 PM64 °FPassing clouds.5 mph78%30.07 "HgN/A
7:50 PM64 °FPassing clouds.5 mph78%30.09 "HgN/A
7:20 PM66 °FClear.3 mph78%30.09 "Hg10 mi
6:50 PM68 °FClear.3 mph73%30.09 "Hg10 mi
6:20 PM66 °FPassing clouds.2 mph78%30.09 "HgN/A
5:50 PM68 °FPassing clouds.3 mph73%30.07 "HgN/A
5:20 PM68 °FPassing clouds.3 mph69%30.07 "HgN/A
4:50 PM70 °FClear.5 mph69%30.07 "Hg10 mi
4:20 PM70 °FPassing clouds.7 mph69%30.07 "HgN/A
3:50 PM72 °FPassing clouds.8 mph61%30.07 "HgN/A
3:20 PM72 °FPassing clouds.8 mph57%30.07 "HgN/A
2:50 PM72 °FPassing clouds.8 mph57%30.04 "HgN/A
2:20 PM73 °FPassing clouds.9 mph53%30.04 "HgN/A
1:50 PM73 °FPassing clouds.8 mph53%30.04 "HgN/A
1:20 PM73 °FPassing clouds.6 mph50%30.07 "HgN/A
12:50 PM75 °FPassing clouds.5 mph47%30.07 "HgN/A
12:20 PM75 °FPassing clouds.3 mph47%30.07 "HgN/A
11:20 AM73 °FScattered clouds.5 mph57%30.09 "HgN/A
10:50 AM73 °FScattered clouds.3 mph57%30.09 "HgN/A
10:20 AM73 °FPassing clouds.1 mph61%30.12 "HgN/A
9:50 AM70 °FPassing clouds.2 mph69%30.12 "HgN/A
8:50 AM66 °FSunny.2 mph68%30.09 "Hg10 mi
8:20 AM63 °FSunny.5 mph73%30.12 "Hg10 mi
7:50 AM61 °FSunny.5 mph72%30.12 "Hg10 mi
7:20 AM57 °FSunny.2 mph77%30.12 "Hg10 mi
6:20 AM57 °FSunny.3 mph72%30.09 "Hg10 mi
5:50 AM55 °FClear.1 mph72%30.09 "Hg10 mi
5:20 AM55 °FPassing clouds.1 mph72%30.09 "HgN/A
4:50 AM57 °FPassing clouds.2 mph67%30.07 "HgN/A
4:20 AM57 °FPassing clouds.3 mph67%30.07 "HgN/A
3:50 AM55 °FPassing clouds.3 mph77%30.07 "HgN/A
3:20 AM57 °FPassing clouds.3 mph72%30.07 "HgN/A
2:50 AM55 °FClear.3 mph82%30.07 "Hg10 mi
1:50 AM57 °FClear.2 mph72%30.07 "Hg10 mi
1:20 AM59 °FClear.3 mph68%30.07 "Hg10 mi
12:20 AM59 °FClear.3 mph77%30.07 "Hg10 mi
11:50 PM
Sat, Nov 28
61 °FClear.3 mph72%30.07 "Hg10 mi
11:20 PM59 °FClear.2 mph77%30.07 "Hg10 mi
Weather by CustomWeather, © 2015

See weather overviewHow to use our weather pages